Temperature
16 16 16 16 16 16 16 16 16 16 16 16 16 16 16 16 16 16 16 16 16 16 16 16 16 16 16 16 16 16 16 16 16 16 16 16 16 16 16 16 16 16 16
16 16 16 16 16 16 16 16 16 16 16 16 16 16 16 16 16 16 16 16 16 16 16 16 16 16 16 16 16 16 16 16 16 16 16 16 16 16 16 16 16 16 16
16 16 16 16 16 16 16 16 16 16 16 16 16 16 16 16 16 16 16 16 16 16 16 16 16 16 16 15 15 15 15 15 15 15 15 15 15 15 15 15 15 15 15
16 16 16 16 16 16 16 16 16 16 16 16 16 16 16 16 16 16 16 16 16 15 15 15 15 16 15 15 15 15 15 15 15 15 15 15 15 15 15 15 15 15 15
16 16 16 16 15 15 15 15 15 15 15 15 16 16 16 16 16 16 16 16 16 15 15 15 15 15 15 15 15 15 15 15 15 15 15 15 15 15 15 15 15 15 15
16 16 15 16 15 15 15 15 15 15 15 15 15 16 16 16 16 16 16 16 16 15 15 15 15 15 15 15 15 15 15 15 15 15 15 15 15 15 15 15 15 15 15
16 16 15 15 15 15 15 15 15 15 15 15 15 15 15 16 16 16 16 15 15 15 15 15 15 15 15 15 15 15 15 15 15 15 15 15 15 15 15 15 15 15 14
15 15 15 15 15 15 15 15 15 15 15 15 15 15 15 15 15 15 15 15 15 15 15 15 15 15 15 15 15 15 15 15 15 15 15 15 14 14 15 14 14 14 14
15 15 15 15 15 15 15 15 15 15 15 15 15 15 15 15 15 15 15 15 15 15 15 15 15 15 14 14 14 14 15 14 14 14 14 14 14 14 14 14 14 14 14
15 15 15 15 15 14 14 14 14 15 14 14 15 15 15 15 15 15 15 15 15 15 15 15 14 15 14 14 14 14 14 14 14 14 14 14 14 14 14 14 14 14 14
15 15 15 15 14 14 14 14 14 14 14 14 14 14 15 15 15 15 14 15 15 15 15 15 14 14 14 14 14 14 14 14 14 14 14 14 14 14 14 14 14 14 14
15 14 14 14 14 14 14 14 14 14 14 14 14 14 14 14 14 15 14 14 14 14 15 14 14 14 14 14 14 14 14 14 14 14 14 14 14 14 14 14 14 14 14
14 14 14 14 14 14 14 14 14 14 14 14 14 14 14 14 14 14 14 14 14 14 14 14 14 14 14 14 14 14 14 14 14 14 14 14 14 14 13 13 13 13 13
14 14 14 14 14 14 14 14 14 14 14 14 14 14 14 14 14 14 14 14 14 14 14 14 14 14 14 14 14 14 14 14 14 14 14 14 14 13 13 13 13 13 13
14 14 14 14 14 14 14 14 13 13 13 14 14 14 14 14 14 14 14 14 14 13 13 14 14 14 14 13 14 14 14 14 14 13 13 13 13 13 13 13 13 13 13
14 14 14 14 14 13 13 13 13 13 13 13 13 13 13 14 13 13 13 13 13 13 13 13 13 13 13 13 13 13 13 13 13 13 13 13 13 13 13 13 13 13 13
14 14 14 14 14 14 13 13 13 13 13 14 13 13 13 13 13 13 13 13 13 13 13 13 13 13 13 13 13 13 13 13 13 13 13 13 13 13 13 13 13 13 12
14 14 14 14 14 14 13 13 13 13 14 14 13 13 13 13 13 13 13 13 13 13 13 13 13 13 13 13 13 13 13 13 13 13 13 13 13 13 13 13 13 12 12
14 14 14 14 13 13 13 13 13 13 13 13 13 13 13 13 13 13 13 13 13 13 13 13 13 13 13 13 13 12 12 12 13 13 13 13 13 13 12 12 12 12 12
14 14 14 13 13 13 13 13 13 13 13 13 13 13 13 13 13 13 13 13 13 12 12 12 12 12 12 12 12 12 12 12 12 12 12 12 12 12 12 12 12 12 12
14 13 13 13 13 13 13 13 13 13 13 13 13 13 13 13 13 13 13 12 12 12 12 12 12 12 12 12 12 12 12 12 12 12 12 12 12 12 12 12 12 12 12
13 13 13 13 13 13 13 13 13 13 13 13 13 13 13 13 13 13 13 12 12 12 12 12 12 12 12 12 12 12 12 11 11 11 11 11 11 11 12 12 12 12 12
13 13 13 13 13 13 13 13 13 13 13 13 12 12 12 12 12 12 12 12 12 12 12 12 12 12 12 12 12 11 11 11 11 11 11 11 11 11 11 11 11 11 11
13 13 13 13 13 13 13 13 13 13 12 12 12 12 12 12 12 12 12 12 12 12 12 12 12 12 11 11 11 11 11 11 11 11 11 11 11 11 11 11 11 11 11
13 13 13 13 13 13 13 13 12 12 12 12 12 12 12 12 12 12 12 12 11 12 12 11 11 11 11 11 11 11 11 11 11 11 11 10 10 11 11 11 11 11 11
13 13 13 13 13 13 13 12 12 12 12 12 12 12 12 12 12 12 12 11 11 11 11 11 11 11 11 11 11 11 11 10 10 10 10 10 10 10 10 10 10 10 10
Wind_Speed
1 1 1 1 0 1 1 1 1 1 2 2 3 2 1 0 1 3 7 11 12 11 11 10 10 9 9 8 8 7 7 8 8 7 8 8 8 8 8 8 9 9 9
2 1 1 0 0 1 1 1 1 1 1 1 1 0 1 1 1 4 6 9 11 11 11 11 10 9 9 9 8 8 8 8 8 8 8 8 8 9 8 8 9 9 9
2 1 1 1 0 1 1 1 1 0 2 2 1 2 2 2 2 2 3 5 8 10 10 10 11 10 10 9 9 9 9 10 10 10 10 9 9 9 9 9 9 9 9
2 1 1 1 1 1 1 0 0 0 0 1 1 2 1 2 3 3 3 4 5 7 9 10 10 11 11 11 10 10 10 10 10 11 11 10 9 9 9 9 9 9 9
2 1 1 1 2 2 1 1 1 0 1 1 2 2 2 2 3 4 3 3 5 7 8 10 11 11 12 11 11 11 10 10 10 11 11 11 10 9 9 9 9 9 9
3 2 2 2 2 1 0 0 0 1 1 2 3 2 2 2 2 3 3 4 5 6 7 8 9 10 12 12 12 11 11 11 10 10 11 11 11 10 9 9 9 9 10
3 2 1 1 2 2 2 2 1 2 2 2 2 2 2 3 4 3 2 2 3 4 6 7 7 7 8 13 13 12 11 11 11 11 10 10 10 10 10 9 9 9 9
4 4 2 2 2 2 2 2 2 2 2 2 1 1 1 2 2 4 3 3 3 3 4 6 7 7 7 7 11 13 13 12 12 12 11 11 11 11 10 10 10 9 9
4 3 3 2 2 3 3 3 3 2 2 2 2 1 1 1 1 2 3 3 4 3 2 3 5 7 8 8 9 13 14 13 12 12 11 11 11 11 11 11 11 10 10
4 4 4 3 2 2 3 4 3 2 2 3 2 2 2 1 1 1 2 2 3 4 4 4 3 5 7 7 8 10 13 13 13 12 12 12 12 13 12 12 12 11 11
4 4 4 3 3 3 3 2 2 3 3 3 2 2 2 2 2 2 2 2 2 2 3 3 3 4 6 7 9 11 13 14 14 13 13 12 12 13 13 13 13 12 12
3 4 4 3 3 3 3 3 3 4 3 2 2 2 2 2 2 2 2 3 3 3 3 3 3 3 5 6 8 10 13 13 13 13 13 12 12 12 12 13 13 13 12
3 3 3 3 3 3 3 4 3 4 4 4 3 3 3 2 2 1 2 2 3 2 2 2 3 3 5 5 6 9 10 12 12 12 12 12 12 12 12 12 12 13 12
3 3 4 4 4 4 4 3 3 4 4 4 5 4 3 3 2 2 2 2 2 3 3 3 2 2 2 3 7 8 7 11 11 12 12 12 12 12 12 12 12 12 12
3 4 4 4 4 4 4 4 4 4 3 4 4 4 4 3 3 2 2 2 3 3 4 2 1 1 1 2 6 6 6 9 11 12 13 13 13 13 13 13 13 13 13
2 3 4 4 4 4 4 4 4 4 4 4 4 4 3 3 2 3 3 3 3 3 4 2 2 1 1 2 4 5 6 8 11 13 14 15 14 14 13 13 13 13 13
2 3 4 4 4 5 5 5 5 5 5 5 5 4 4 3 3 3 3 3 3 3 3 3 2 1 2 3 2 4 5 6 8 13 15 16 15 15 14 14 14 14 14
2 2 3 4 4 4 4 5 5 5 5 5 5 4 4 4 3 3 3 3 3 3 3 3 3 3 3 3 4 4 5 6 5 10 15 15 15 15 15 15 15 15 14
2 2 2 3 4 4 4 4 4 4 4 4 4 4 4 4 4 3 4 3 3 3 3 3 4 3 3 3 3 4 4 3 5 7 10 13 15 15 15 15 15 15 15
2 2 3 3 3 3 3 4 4 4 4 4 4 4 4 4 3 3 3 3 3 3 2 2 3 3 2 2 2 3 3 2 3 4 4 7 11 13 14 15 15 16 16
3 2 3 2 3 3 3 3 3 4 3 3 3 3 4 4 4 4 3 2 2 2 2 3 3 2 2 2 2 2 3 2 2 2 2 2 4 6 8 12 14 14 14
3 3 2 3 3 3 2 2 2 3 3 3 3 3 3 3 4 5 6 4 4 4 4 3 3 3 3 3 2 2 1 1 2 1 1 3 2 3 5 7 10 13 14
3 3 3 3 3 2 3 3 3 3 3 3 3 3 4 3 1 2 4 6 5 7 6 4 4 4 4 3 2 2 2 2 3 3 2 4 3 3 3 5 8 10 12
3 3 3 3 3 3 4 4 3 2 3 2 2 3 2 1 2 2 3 3 4 3 5 4 4 4 4 3 3 3 3 3 3 3 2 3 3 3 3 3 6 8 10
3 3 3 3 3 3 4 4 4 3 2 3 3 2 2 2 1 1 2 2 2 2 3 3 4 5 5 5 3 1 2 2 3 3 1 2 3 3 2 2 5 9 10
4 4 3 3 4 3 6 6 5 3 3 3 2 2 2 2 2 1 1 2 3 3 3 3 3 4 5 5 5 3 3 3 3 2 1 2 3 2 2 2 2 5 6
Wind_Direction
109 104 83 36 190 164 211 237 248 199 211 212 213 208 153 217 230 148 146 161 163 164 168 174 179 185 188 188 188 187 185 185 189 192 193 194 196 195 194 198 200 198 198
120 107 157 250 301 357 345 280 237 239 214 231 258 287 175 220 171 143 155 163 168 172 176 181 183 185 189 192 192 193 194 194 193 198 198 199 200 199 198 199 203 200 198
132 153 184 189 85 270 269 292 289 171 220 221 204 235 205 191 165 148 165 167 173 179 181 184 186 188 192 195 199 203 204 204 203 202 201 203 205 204 204 206 208 207 205
148 208 187 144 231 254 240 224 253 331 280 283 251 244 224 179 173 184 193 185 172 174 180 187 188 192 196 198 203 208 211 211 209 207 202 203 205 203 204 206 209 211 211
151 195 192 183 224 223 227 235 116 310 273 270 267 229 213 202 185 201 191 195 181 171 173 186 195 199 201 204 208 212 214 214 210 208 204 204 205 203 203 205 209 213 215
177 194 196 187 230 207 175 163 259 257 261 250 258 253 224 206 204 193 193 195 181 185 180 180 189 201 208 208 209 212 214 215 213 211 208 208 208 206 207 209 212 215 216
184 217 213 205 231 184 188 199 208 237 242 240 248 265 231 213 197 183 193 184 189 192 188 177 183 194 200 210 210 211 212 214 212 212 212 211 210 209 208 208 210 215 219
191 206 199 204 190 181 205 210 213 226 231 220 224 244 233 216 219 208 184 188 208 203 200 199 195 198 199 194 203 209 210 211 214 212 213 212 212 210 207 207 210 210 214
198 211 199 210 197 197 192 212 228 225 247 245 216 229 252 236 224 202 208 203 195 199 214 203 201 201 201 193 196 204 206 209 212 214 215 215 215 213 211 210 210 213 215
198 208 207 206 221 220 196 216 200 232 239 254 232 212 218 160 240 246 238 220 202 198 211 232 216 201 197 194 192 198 204 206 209 214 219 221 219 216 214 213 214 216 218
205 206 206 201 217 228 204 205 212 229 240 257 257 226 224 222 229 227 255 260 251 224 215 222 215 200 196 196 189 197 199 206 210 215 218 220 222 220 219 218 220 220 223
206 206 209 203 214 225 212 214 216 230 238 254 266 258 247 234 231 234 245 254 253 249 233 224 213 200 202 194 199 201 196 201 210 213 216 217 219 220 221 222 224 223 224
216 204 209 200 216 217 220 221 212 225 231 235 242 253 255 258 248 241 238 268 282 284 263 238 228 203 208 172 182 190 195 198 206 213 215 215 216 218 220 223 225 225 226
215 203 205 199 211 211 215 206 219 230 217 222 242 241 251 259 260 258 247 255 275 275 263 252 242 209 208 170 182 187 196 201 205 212 216 216 218 219 221 223 225 225 226
217 203 203 208 210 211 210 205 222 229 209 215 234 231 234 246 245 257 254 232 234 263 265 258 261 225 175 167 178 192 197 205 210 216 215 215 218 220 222 223 224 224 224
226 205 203 209 211 208 207 206 223 221 210 215 228 228 232 247 242 242 247 241 236 250 268 258 257 242 237 235 207 212 214 208 213 219 217 216 217 219 222 223 223 223 224
200 206 203 210 212 211 209 210 219 219 219 221 226 224 225 241 252 261 251 238 243 253 265 272 261 252 253 250 231 239 229 218 219 217 217 217 218 219 221 222 222 223 224
205 215 213 214 220 217 211 214 226 227 224 223 224 226 225 232 234 254 260 257 255 250 247 259 265 262 258 234 227 232 236 240 235 220 215 216 219 220 221 222 223 223 224
211 215 214 220 229 227 215 217 224 237 229 223 223 223 225 225 237 244 250 250 258 263 246 245 257 256 252 235 232 240 243 243 251 239 218 218 220 219 220 221 222 223 224
207 217 228 223 224 228 226 223 223 237 238 230 225 223 225 218 227 247 252 247 255 269 266 259 259 256 249 242 229 235 246 245 253 248 228 221 216 219 221 222 223 224 223
210 207 224 226 234 230 237 230 230 233 234 235 238 230 222 209 214 222 242 237 245 251 258 257 254 251 249 247 245 235 235 235 252 233 231 230 211 213 221 227 227 225 223
207 209 219 225 235 240 189 193 220 246 242 237 239 233 227 207 218 219 226 231 232 242 257 262 264 262 258 259 264 260 246 265 272 264 271 273 234 218 208 210 218 219 221
200 213 225 226 223 217 184 190 212 237 242 240 236 231 252 253 217 241 226 228 242 243 237 244 260 266 270 272 279 281 280 276 266 260 274 270 263 257 233 224 210 210 215
202 216 230 233 220 218 187 189 211 227 247 240 239 240 232 245 267 273 253 235 231 249 238 234 245 262 268 273 258 251 256 263 263 265 231 250 259 254 253 196 206 205 212
208 221 223 230 217 194 183 189 192 232 226 237 241 241 204 187 232 262 254 260 271 277 267 240 227 245 255 261 255 261 253 245 269 272 245 248 259 261 252 237 216 212 210
218 224 231 239 224 194 184 187 189 224 236 235 221 205 170 162 146 155 249 257 272 288 308 302 273 260 249 248 233 216 237 254 262 273 249 254 261 268 269 242 205 208 219
Height
1524 1525 1525 1526 1527 1529 1530 1530 1531 1532 1533 1534 1535 1537 1537 1538 1539 1539 1540 1541 1542 1543 1544 1545 1546 1548 1549 1551 1552 1554 1556 1557 1559 1561 1563 1565 1566 1568 1570 1572 1574 1576 1577
1522 1523 1524 1525 1526 1527 1528 1529 1530 1531 1531 1532 1534 1535 1536 1536 1537 1538 1539 1539 1540 1541 1542 1544 1545 1546 1547 1549 1550 1552 1553 1555 1556 1558 1560 1562 1564 1565 1567 1569 1571 1573 1574
1521 1522 1523 1524 1524 1526 1527 1528 1528 1529 1530 1531 1532 1533 1534 1535 1536 1537 1538 1538 1539 1540 1541 1542 1543 1544 1545 1546 1548 1549 1551 1552 1554 1555 1557 1559 1561 1563 1564 1566 1568 1570 1571
1520 1520 1521 1522 1523 1524 1525 1526 1527 1528 1528 1529 1530 1532 1533 1534 1534 1535 1536 1537 1538 1538 1539 1540 1541 1542 1543 1544 1545 1547 1548 1549 1551 1552 1554 1556 1558 1560 1561 1563 1565 1567 1568
1518 1519 1520 1521 1522 1523 1524 1524 1525 1526 1527 1527 1528 1530 1531 1532 1532 1533 1534 1535 1536 1537 1537 1538 1539 1540 1541 1542 1543 1544 1545 1546 1548 1550 1551 1553 1555 1556 1558 1560 1562 1563 1565
1517 1518 1519 1519 1520 1521 1522 1522 1523 1524 1525 1526 1527 1528 1529 1530 1530 1531 1532 1533 1534 1535 1536 1536 1537 1538 1539 1540 1541 1542 1543 1544 1545 1547 1549 1550 1552 1553 1555 1556 1558 1560 1562
1515 1516 1517 1517 1518 1519 1520 1520 1521 1522 1523 1524 1525 1526 1527 1528 1528 1529 1530 1531 1532 1532 1534 1534 1535 1536 1536 1537 1538 1539 1540 1541 1543 1544 1545 1547 1548 1550 1551 1553 1554 1556 1558
1514 1514 1515 1515 1516 1517 1517 1518 1520 1520 1522 1523 1524 1524 1525 1527 1526 1528 1528 1529 1530 1531 1531 1532 1532 1533 1534 1535 1535 1536 1537 1539 1540 1541 1542 1544 1545 1547 1548 1550 1551 1553 1554
1511 1512 1512 1513 1514 1514 1515 1516 1517 1518 1519 1521 1522 1523 1523 1524 1525 1526 1526 1527 1528 1529 1529 1530 1530 1530 1531 1532 1532 1533 1534 1536 1537 1538 1539 1540 1541 1543 1545 1546 1547 1549 1550
1509 1510 1510 1511 1511 1512 1513 1514 1515 1516 1517 1518 1520 1521 1522 1522 1523 1524 1525 1525 1525 1526 1527 1527 1527 1528 1528 1529 1529 1530 1531 1532 1533 1534 1535 1536 1538 1539 1541 1542 1544 1545 1546
1507 1507 1508 1508 1509 1510 1511 1512 1513 1514 1515 1516 1517 1519 1520 1521 1521 1522 1522 1523 1523 1523 1524 1524 1524 1525 1525 1526 1526 1527 1528 1529 1530 1531 1532 1533 1534 1535 1537 1538 1540 1541 1542
1504 1505 1506 1506 1507 1507 1508 1509 1510 1511 1513 1514 1515 1516 1517 1518 1519 1520 1520 1520 1520 1520 1521 1520 1520 1521 1522 1522 1523 1523 1524 1525 1526 1527 1528 1529 1530 1532 1533 1534 1536 1537 1538
1502 1502 1503 1503 1504 1505 1505 1506 1508 1509 1510 1511 1512 1514 1515 1515 1516 1517 1517 1517 1517 1518 1518 1518 1518 1519 1519 1519 1519 1520 1520 1521 1522 1523 1524 1525 1526 1528 1529 1530 1531 1533 1534
1500 1500 1500 1501 1501 1502 1503 1504 1505 1506 1507 1508 1510 1511 1512 1512 1513 1514 1515 1515 1515 1515 1515 1515 1515 1515 1516 1516 1516 1516 1517 1517 1518 1519 1520 1521 1522 1523 1525 1526 1527 1528 1530
1497 1498 1498 1498 1499 1500 1500 1501 1502 1503 1504 1505 1506 1508 1508 1509 1510 1511 1512 1512 1513 1512 1512 1512 1512 1512 1512 1512 1513 1513 1513 1513 1514 1514 1515 1517 1518 1519 1520 1521 1522 1524 1525
1494 1495 1495 1496 1497 1497 1498 1498 1499 1501 1502 1503 1504 1505 1506 1506 1507 1508 1509 1509 1510 1510 1509 1509 1509 1509 1509 1509 1509 1509 1509 1510 1510 1510 1511 1512 1513 1514 1515 1516 1518 1519 1520
1492 1492 1492 1494 1494 1495 1495 1496 1497 1498 1499 1500 1501 1502 1503 1503 1504 1505 1505 1505 1506 1507 1506 1505 1506 1505 1505 1505 1505 1506 1506 1506 1506 1506 1507 1508 1509 1510 1510 1512 1513 1514 1515
1490 1490 1491 1492 1492 1493 1493 1494 1494 1496 1496 1497 1498 1499 1500 1500 1501 1502 1502 1502 1503 1503 1503 1502 1501 1501 1502 1502 1502 1502 1502 1502 1502 1502 1503 1504 1504 1505 1506 1507 1508 1509 1510
1488 1488 1489 1489 1490 1491 1491 1491 1492 1493 1494 1494 1495 1496 1497 1497 1498 1498 1498 1499 1499 1500 1499 1498 1498 1498 1498 1498 1498 1498 1498 1498 1498 1499 1499 1499 1500 1501 1502 1503 1504 1505 1506
1485 1486 1486 1487 1487 1488 1489 1489 1490 1490 1491 1492 1492 1493 1494 1494 1495 1495 1495 1495 1496 1496 1496 1495 1494 1494 1494 1494 1495 1494 1494 1495 1495 1495 1495 1495 1496 1497 1498 1498 1499 1500 1501
1483 1484 1484 1485 1485 1486 1486 1486 1487 1487 1488 1488 1489 1490 1491 1491 1492 1492 1492 1492 1493 1492 1492 1492 1491 1491 1491 1491 1491 1491 1491 1491 1492 1492 1492 1492 1492 1492 1493 1494 1495 1496 1497
1482 1482 1482 1483 1483 1484 1484 1484 1484 1484 1485 1485 1486 1487 1488 1488 1489 1489 1489 1490 1490 1490 1489 1489 1489 1488 1488 1488 1488 1488 1488 1489 1488 1490 1489 1489 1489 1489 1489 1490 1491 1491 1492
1480 1480 1480 1481 1481 1481 1481 1482 1482 1482 1482 1483 1483 1484 1485 1486 1486 1486 1486 1486 1487 1486 1486 1486 1486 1485 1485 1485 1485 1485 1485 1485 1485 1486 1486 1485 1486 1486 1486 1486 1487 1487 1488
1478 1478 1479 1479 1479 1479 1479 1479 1479 1480 1480 1481 1481 1482 1482 1483 1483 1483 1483 1483 1483 1483 1483 1483 1483 1482 1482 1482 1482 1482 1482 1482 1483 1483 1483 1482 1482 1482 1482 1483 1483 1483 1483
1476 1476 1477 1477 1477 1477 1477 1477 1477 1478 1478 1479 1479 1480 1480 1480 1480 1480 1480 1480 1480 1480 1480 1480 1480 1479 1479 1479 1479 1479 1479 1479 1478 1479 1479 1479 1478 1478 1479 1478 1479 1479 1479
1473 1474 1474 1474 1474 1474 1475 1475 1475 1476 1476 1477 1477 1477 1478 1477 1477 1477 1477 1477 1477 1477 1477 1477 1476 1476 1476 1476 1475 1475 1475 1475 1475 1475 1476 1476 1475 1475 1475 1475 1475 1475 1475